timestamp,surface_pressure_avg,surface_temp_avg,battery_voltage,lat,long
2021-07-27 00:09:01+00:00,332.3864,16.6,12.97,47.84626,-54.09684
2021-07-27 00:19:00+00:00,339.7413,16.56,12.73,47.84626,-54.09684
2021-07-27 00:29:00+00:00,352.1296,16.51,12.73,47.84626,-54.09684
2021-07-27 00:39:00+00:00,353.6595,16.5,12.73,47.84626,-54.09684
2021-07-27 00:49:00+00:00,350.7013,16.5,12.73,47.84626,-54.09684
2021-07-27 00:59:00+00:00,357.083,16.49,12.73,47.84626,-54.09684
2021-07-27 01:09:00+00:00,363.8029,16.49,12.73,47.84626,-54.09684
2021-07-27 01:19:01+00:00,360.3546,16.4,12.73,47.84626,-54.09684
2021-07-27 01:29:01+00:00,360.648,16.4,12.73,47.84626,-54.09684
2021-07-27 01:39:01+00:00,372.1296,16.4,12.73,47.84626,-54.09684
2021-07-27 01:49:01+00:00,374.0295,16.4,12.73,47.84626,-54.09684
2021-07-27 01:59:01+00:00,366.5262,16.4,12.73,47.84626,-54.09684
2021-07-27 02:09:01+00:00,371.5346,16.4,12.73,47.84626,-54.09684
2021-07-27 02:19:00+00:00,376.7996,16.4,12.73,47.84626,-54.09684
2021-07-27 02:29:00+00:00,369.1812,16.4,12.73,47.84626,-54.09684
2021-07-27 02:39:00+00:00,362.918,16.4,12.73,47.84626,-54.09684
2021-07-27 02:49:00+00:00,365.9681,16.41,12.73,47.84626,-54.09684
2021-07-27 02:59:00+00:00,363.8979,16.45,12.73,47.84626,-54.09684
2021-07-27 03:09:00+00:00,351.5779,16.49,12.73,47.84626,-54.09684
2021-07-27 03:19:00+00:00,349.8781,16.5,12.73,47.84626,-54.09684
2021-07-27 03:29:00+00:00,350.7961,16.5,12.73,47.84626,-54.09684
2021-07-27 03:39:00+00:00,343.0946,16.5,12.73,47.84626,-54.09684
2021-07-27 03:49:00+00:00,335.8497,16.5,12.73,47.84626,-54.09684
2021-07-27 03:59:00+00:00,334.3613,16.5,12.73,47.84626,-54.09684
2021-07-27 04:09:00+00:00,327.9813,16.5,12.73,47.84626,-54.09684
2021-07-27 04:19:00+00:00,315.0096,16.56,12.73,47.84626,-54.09684
2021-07-27 04:29:00+00:00,308.1164,16.6,12.73,47.84626,-54.09684
2021-07-27 04:39:00+00:00,302.1512,16.6,12.73,47.84626,-54.09684
2021-07-27 04:49:00+00:00,286.7064,16.6,12.73,47.84626,-54.09684
2021-07-27 04:59:00+00:00,270.8348,16.62,12.73,47.84626,-54.09684
2021-07-27 05:09:00+00:00,263.5347,16.67,12.73,47.84626,-54.09684
2021-07-27 05:19:00+00:00,253.2081,16.68,12.73,47.84626,-54.09684
2021-07-27 05:29:00+00:00,243.6297,16.69,12.73,47.84626,-54.09684
2021-07-27 05:39:00+00:00,236.7997,16.7,12.73,47.84626,-54.09684
2021-07-27 05:49:00+00:00,226.8031,16.7,12.73,47.84626,-54.09684
2021-07-27 05:59:00+00:00,214.5964,16.7,12.73,47.84626,-54.09684
2021-07-27 06:09:00+00:00,206.2831,16.7,12.73,47.84626,-54.09684
2021-07-27 06:19:00+00:00,202.3132,16.7,12.65,47.84626,-54.09684
2021-07-27 06:29:00+00:00,197.0448,16.7,12.65,47.84626,-54.09684
2021-07-27 06:39:00+00:00,190.2231,16.7,12.65,47.84626,-54.09684
2021-07-27 06:49:00+00:00,184.2698,16.7,12.65,47.84626,-54.09684
2021-07-27 06:59:00+00:00,180.6298,16.7,12.65,47.84626,-54.09684
2021-07-27 07:09:00+00:00,179.4182,16.73,12.65,47.84626,-54.09684
2021-07-27 07:19:00+00:00,176.7664,16.76,12.65,47.84626,-54.09684
2021-07-27 07:29:00+00:00,176.4482,16.78,12.65,47.84626,-54.09684
2021-07-27 07:39:00+00:00,180.2898,16.77,12.65,47.84626,-54.09684
2021-07-27 07:49:00+00:00,181.8765,16.76,12.65,47.84626,-54.09684
2021-07-27 07:59:00+00:00,184.8848,16.78,12.65,47.84626,-54.09684
2021-07-27 08:09:00+00:00,191.6615,16.79,12.65,47.84626,-54.09684
2021-07-27 08:19:00+00:00,194.2131,16.77,12.65,47.84626,-54.09684
2021-07-27 08:29:00+00:00,193.5964,16.75,12.65,47.84626,-54.09684
2021-07-27 08:39:00+00:00,196.4315,16.73,12.65,47.84626,-54.09684
2021-07-27 08:49:00+00:00,201.4081,16.74,12.65,47.84626,-54.09684
2021-07-27 08:59:00+00:00,204.8615,16.74,12.65,47.84626,-54.09684
2021-07-27 09:09:00+00:00,207.4865,16.73,12.65,47.84626,-54.09684
2021-07-27 09:19:01+00:00,212.0098,16.7,12.65,47.84626,-54.09684
2021-07-27 09:29:01+00:00,213.8781,16.7,12.65,47.84626,-54.09684
2021-07-27 09:39:01+00:00,215.4398,16.7,12.65,47.84626,-54.09684
2021-07-27 09:49:01+00:00,220.8698,16.6,12.65,47.84626,-54.09684
2021-07-27 09:59:01+00:00,224.0647,16.6,12.65,47.84626,-54.09684
2021-07-27 10:09:01+00:00,223.7164,16.5,12.65,47.84626,-54.09684
2021-07-27 10:19:01+00:00,227.5031,16.5,12.65,47.84626,-54.09684
2021-07-27 10:29:01+00:00,234.2831,16.5,12.65,47.84626,-54.09684
2021-07-27 10:39:01+00:00,237.7797,16.5,12.65,47.84626,-54.09684
2021-07-27 10:49:01+00:00,240.0081,16.58,12.65,47.84626,-54.09684
2021-07-27 10:59:01+00:00,247.2597,16.6,12.65,47.84626,-54.09684
2021-07-27 11:09:01+00:00,254.1631,16.59,12.65,47.84626,-54.09684
2021-07-27 11:19:01+00:00,257.8198,16.6,12.65,47.84626,-54.09684
2021-07-27 11:29:01+00:00,263.9148,16.6,12.65,47.84626,-54.09684
2021-07-27 11:39:01+00:00,273.0814,16.6,12.65,47.84626,-54.09684
2021-07-27 11:49:01+00:00,273.993,16.67,12.65,47.84626,-54.09684
2021-07-27 11:59:01+00:00,275.4714,16.69,12.65,47.84626,-54.09684
2021-07-27 12:09:01+00:00,286.1581,16.6,12.65,47.84626,-54.09684
2021-07-27 12:19:01+00:00,299.4963,16.6,12.65,47.84626,-54.09684
2021-07-27 12:29:01+00:00,304.488,16.6,12.65,47.84626,-54.09684
2021-07-27 12:39:01+00:00,311.4697,16.58,12.65,47.84626,-54.09684
2021-07-27 12:49:01+00:00,316.9713,16.58,12.65,47.84626,-54.09684
2021-07-27 12:59:01+00:00,317.953,16.6,12.65,47.84626,-54.09684
2021-07-27 13:09:01+00:00,321.6379,16.6,12.65,47.84626,-54.09684
2021-07-27 13:19:01+00:00,332.6013,16.5,12.81,47.84626,-54.09684
2021-07-27 13:29:01+00:00,333.5464,16.56,12.81,47.84626,-54.09684
2021-07-27 13:39:01+00:00,332.0179,16.6,12.81,47.84626,-54.09684
2021-07-27 13:49:01+00:00,336.2296,16.6,12.81,47.84626,-54.09684
2021-07-27 13:59:01+00:00,340.293,16.6,12.81,47.84626,-54.09684
2021-07-27 14:09:01+00:00,337.4446,16.54,12.81,47.84626,-54.09684
2021-07-27 14:19:01+00:00,335.5829,16.58,12.81,47.84626,-54.09684
2021-07-27 14:29:01+00:00,339.9147,16.58,12.81,47.84626,-54.09684
2021-07-27 14:39:01+00:00,342.1346,16.58,12.81,47.84626,-54.09684
2021-07-27 14:49:01+00:00,338.7030000000001,16.58,12.81,47.84626,-54.09684
2021-07-27 14:59:01+00:00,337.5563,16.58,12.81,47.84626,-54.09684
2021-07-27 15:09:01+00:00,338.3812,16.49,12.81,47.84626,-54.09684
2021-07-27 15:19:01+00:00,336.1063,16.5,12.97,47.84626,-54.09684
2021-07-27 15:29:01+00:00,331.4398,16.52,12.97,47.84626,-54.09684
2021-07-27 15:39:01+00:00,328.2746,16.56,12.97,47.84626,-54.09684
2021-07-27 15:49:01+00:00,324.6646,16.54,12.97,47.84626,-54.09684
2021-07-27 15:59:01+00:00,318.718,16.57,12.97,47.84626,-54.09684
2021-07-27 16:09:01+00:00,314.6413,16.58,12.97,47.84626,-54.09684
2021-07-27 16:19:01+00:00,310.8163,16.58,12.97,47.84626,-54.09684
2021-07-27 16:29:01+00:00,304.8297,16.6,12.97,47.84626,-54.09684
2021-07-27 16:39:01+00:00,295.858,16.6,12.97,47.84626,-54.09684
2021-07-27 16:49:01+00:00,287.888,16.6,12.97,47.84626,-54.09684
2021-07-27 16:59:01+00:00,277.1346,16.6,12.97,47.84626,-54.09684
2021-07-27 17:09:01+00:00,268.5297,16.55,12.97,47.84626,-54.09684
2021-07-27 17:19:01+00:00,260.8564,16.55,13.05,47.84626,-54.09684
2021-07-27 17:29:01+00:00,250.6315,16.57,13.05,47.84626,-54.09684
2021-07-27 17:39:01+00:00,236.7248,16.6,13.05,47.84626,-54.09684
2021-07-27 17:49:01+00:00,227.1831,16.6,13.05,47.84626,-54.09684
2021-07-27 17:59:01+00:00,219.0948,16.6,13.05,47.84626,-54.09684
2021-07-27 18:09:01+00:00,210.3665,16.6,13.05,47.84626,-54.09684
2021-07-27 18:19:01+00:00,202.2715,16.6,13.13,47.84626,-54.09684
2021-07-27 18:29:01+00:00,198.7864,16.61,13.13,47.84626,-54.09684
2021-07-27 18:39:01+00:00,193.5865,16.65,13.13,47.84626,-54.09684
2021-07-27 18:49:01+00:00,186.6348,16.69,13.13,47.84626,-54.09684
2021-07-27 18:59:01+00:00,185.7698,16.7,13.13,47.84626,-54.09684
2021-07-27 19:09:01+00:00,182.3498,16.7,13.13,47.84626,-54.09684
2021-07-27 19:19:01+00:00,175.6915,16.72,13.21,47.84626,-54.09684
2021-07-27 19:29:01+00:00,173.4698,16.78,13.21,47.84626,-54.09684
2021-07-27 19:39:01+00:00,174.9365,16.79,13.21,47.84626,-54.09684
2021-07-27 19:49:01+00:00,173.7432,16.8,13.21,47.84626,-54.09684
2021-07-27 19:59:01+00:00,174.9548,16.8,13.21,47.84626,-54.09684
2021-07-27 20:09:01+00:00,181.3081,16.8,13.21,47.84626,-54.09684
2021-07-27 20:19:01+00:00,181.4615,16.8,13.05,47.84626,-54.09684
2021-07-27 20:29:01+00:00,182.2781,16.8,13.05,47.84626,-54.09684
2021-07-27 20:39:01+00:00,189.7081,16.8,13.05,47.84626,-54.09684
2021-07-27 20:49:01+00:00,193.3365,16.8,13.05,47.84626,-54.09684
2021-07-27 20:59:01+00:00,192.1348,16.83,13.05,47.84626,-54.09684
2021-07-27 21:09:01+00:00,195.9131,16.87,13.05,47.84626,-54.09684
2021-07-27 21:19:01+00:00,199.1765,16.86,12.89,47.84626,-54.09684
2021-07-27 21:29:01+00:00,199.7065,16.88,12.89,47.84626,-54.09684
2021-07-27 21:39:01+00:00,202.7048,16.89,12.89,47.84626,-54.09684
2021-07-27 21:49:01+00:00,209.4065,16.83,12.89,47.84626,-54.09684
2021-07-27 21:59:01+00:00,215.4581,16.8,12.89,47.84626,-54.09684
2021-07-27 22:09:01+00:00,217.2665,16.8,12.89,47.84626,-54.09684
2021-07-27 22:19:01+00:00,223.3564,16.8,12.81,47.84626,-54.09684
2021-07-27 22:29:01+00:00,233.4998,16.8,12.81,47.84626,-54.09684
2021-07-27 22:39:01+00:00,236.6431,16.79,12.81,47.84626,-54.09684
2021-07-27 22:49:01+00:00,236.9964,16.79,12.81,47.84626,-54.09684
2021-07-27 22:59:01+00:00,244.4414,16.79,12.81,47.84626,-54.09684
2021-07-27 23:09:01+00:00,253.0464,16.8,12.81,47.84626,-54.09684
2021-07-27 23:19:01+00:00,255.3831,16.8,12.73,47.84626,-54.09684
2021-07-27 23:29:01+00:00,256.3448,16.8,12.73,47.84626,-54.09684
2021-07-27 23:39:01+00:00,264.5631,16.8,12.73,47.84626,-54.09684
2021-07-27 23:49:01+00:00,274.0048,16.8,12.73,47.84626,-54.09684
2021-07-27 23:59:01+00:00,277.2714,16.8,12.73,47.84626,-54.09684
